CW8284 Weather Reports


Display with metric or nautical units.
time (UTC)temp
F
wind
direction
speed
MPH
gust
MPH
rain 1hr
in
rain 24hr
in
rain mn
in
humidity
%
barometer
mb
20260903045119 66 180 0.0 0.0 0.00 0.00 0.00 1013.2
20260903045019 66 180 0.0 1.0 0.00 0.00 0.00 1013.3
20260903044919 66 202 0.0 0.0 0.00 0.00 0.00 1013.2
20260903044819 67 270 0.0 0.0 0.00 0.00 0.00 1013.2
20260903043520 67 225 0.0 1.0 0.00 0.00 0.00 1013.2
20260903043119 68 180 1.0 1.0 0.00 0.00 0.00 1013.2
20260903042419 68 202 0.0 0.0 0.00 0.00 0.00 1013.1
20260903042319 68 225 1.0 2.0 0.00 0.00 0.00 1013.2
20260903042219 68 202 0.0 1.0 0.00 0.00 0.00 1013.2
20260903042119 68 225 1.0 3.0 0.00 0.00 0.00 1013.2
20260903041719 68 157 0.0 0.0 0.00 0.00 0.00 1013.2
20260903041019 68 180 2.0 3.0 0.00 0.00 0.00 1013.3
20260903040919 68 225 1.0 2.0 0.00 0.00 0.00 1013.2
20260903040819 68 225 1.0 2.0 0.00 0.00 0.00 1013.3
20260903040419 68 292 1.0 2.0 0.00 0.00 0.00 1013.1
20260903035918 68 225 1.0 2.0 0.00 0.00 0.00 1013.2
20260903034619 69 202 0.0 1.0 0.00 0.00 0.00 1012.9
20260903034219 69 202 2.0 3.0 0.00 0.00 0.00 1012.9
20260903034119 69 180 1.0 2.0 0.00 0.00 0.00 1012.8
20260903033719 69 225 2.0 3.0 0.00 0.00 0.00 1012.7
20260903033019 69 202 2.0 4.0 0.00 0.00 0.00 1012.9
20260903032319 70 202 1.0 3.0 0.00 0.00 0.00 1012.5
20260903032222 70 202 2.0 4.0 0.00 0.00 0.00 1012.6
20260903032119 70 225 1.0 4.0 0.00 0.00 0.00 1012.4
20260903030818 71 225 2.0 3.0 0.00 0.00 0.00 1012.3
20260903030719 71 225 1.0 3.0 0.00 0.00 0.00 1012.4
20260903030619 71 225 3.0 4.0 0.00 0.00 0.00 1012.4
20260903025619 72 225 1.0 3.0 0.00 0.00 0.00 1012.4
20260903025519 72 225 3.0 5.0 0.00 0.00 0.00 1012.3
20260903025119 72 225 2.0 3.0 0.00 0.00 0.00 1012.3
20260903025019 72 180 3.0 4.0 0.00 0.00 0.00 1012.4
20260903023419 73 225 2.0 3.0 0.00 0.00 0.00 1012.1
20260903023319 73 180 1.0 2.0 0.00 0.00 0.00 1012.1
20260903022620 74 225 2.0 4.0 0.00 0.00 0.00 1012.1
20260903021619 74 225 3.0 4.0 0.00 0.00 0.00 1012.2
20260903021219 74 225 4.0 4.0 0.00 0.00 0.00 1012.0
20260903021119 74 225 4.0 6.0 0.00 0.00 0.00 1012.2
20260903020119 75 247 3.0 4.0 0.00 0.00 0.00 1012.1
20260903015719 75 225 3.0 5.0 0.00 0.00 0.00 1012.1
20260903015620 75 225 5.0 8.0 0.00 0.00 0.00 1012.0
20260903015519 75 225 5.0 8.0 0.00 0.00 0.00 1012.0
20260903015119 76 225 3.0 4.0 0.00 0.00 0.00 1012.0
20260903013818 77 202 4.0 6.0 0.00 0.00 0.00 1012.1
20260903013725 77 202 4.0 7.0 0.00 0.00 0.00 1011.8
20260903013619 77 180 3.0 7.0 0.00 0.00 0.00 1011.9
20260903012919 77 135 2.0 2.0 0.00 0.00 0.00 1011.9
20260903012820 77 202 4.0 8.0 0.00 0.00 0.00 1012.1
20260903012718 77 157 2.0 3.0 0.00 0.00 0.00 1012.0
20260903012619 77 247 5.0 6.0 0.00 0.00 0.00 1012.0
20260903012222 77 202 4.0 5.0 0.00 0.00 0.00 1011.9
20260903011818 78 225 4.0 5.0 0.00 0.00 0.00 1011.9
20260903011718 78 202 5.0 8.0 0.00 0.00 0.00 1012.0
20260903011620 78 247 7.0 9.0 0.00 0.00 0.00 1011.9
20260903011519 78 225 5.0 9.0 0.00 0.00 0.00 1012.1
20260903011118 78 225 6.0 8.0 0.00 0.00 0.00 1011.7
20260903010618 79 225 5.0 7.0 0.00 0.00 0.00 1011.8
20260903010519 79 247 3.0 5.0 0.00 0.00 0.00 1011.9
20260903010118 79 202 3.0 6.0 0.00 0.00 0.00 1012.0
20260903010019 79 180 5.0 7.0 0.00 0.00 0.00 1011.9
20260903005919 79 225 5.0 8.0 0.00 0.00 0.00 1011.9
20260903004919 80 225 2.0 5.0 0.00 0.00 0.00 1011.9
20260903004219 80 180 4.0 7.0 0.00 0.00 0.00 1011.8
20260903004120 80 202 6.0 8.0 0.00 0.00 0.00 1012.1
20260903003419 81 292 3.0 8.0 0.00 0.00 0.00 1011.7
20260903003319 81 247 3.0 7.0 0.00 0.00 0.00 1011.9
20260903003219 81 202 5.0 6.0 0.00 0.00 0.00 1012.0
20260903003119 81 247 5.0 6.0 0.00 0.00 0.00 1011.7
20260903003019 81 225 4.0 5.0 0.00 0.00 0.00 1012.0
20260903002020 82 135 2.0 5.0 0.00 0.00 0.00 1011.8
20260903000418 83 225 2.0 5.0 0.00 0.00 0.00 1012.0
20260903000319 83 225 3.0 7.0 0.00 0.00 0.00 1011.9
20260903000219 83 202 6.0 9.0 0.00 0.00 0.00 1012.0
20260903000119 83 225 7.0 9.0 0.00 0.00 0.00 1011.8
20260903000019 84 270 5.0 8.0 0.00 0.00 0.00 1012.0
20260902235919 84 225 3.0 7.0 0.00 0.00 0.00 1012.0
20260902235819 84 225 2.0 4.0 0.00 0.00 0.00 1011.9
20260902235719 84 225 2.0 5.0 0.00 0.00 0.00 1011.7
20260902235319 83 225 3.0 8.0 0.00 0.00 0.00 1011.9
20260902234319 84 270 2.0 2.0 0.00 0.00 0.00 1011.9
20260902234218 84 157 2.0 3.0 0.00 0.00 0.00 1011.9
20260902234119 84 157 4.0 8.0 0.00 0.00 0.00 1011.9
20260902234019 84 45 1.0 2.0 0.00 0.00 0.00 1012.0
20260902233919 84 157 1.0 2.0 0.00 0.00 0.00 1011.9
20260902233219 84 225 4.0 6.0 0.00 0.00 0.00 1011.9
20260902232219 85 202 4.0 5.0 0.00 0.00 0.00 1012.0
20260902231818 85 202 2.0 5.0 0.00 0.00 0.00 1012.0
20260902231719 85 157 2.0 4.0 0.00 0.00 0.00 1011.7
20260902230719 87 202 3.0 5.0 0.00 0.00 0.00 1012.1
20260902230318 88 202 3.0 7.0 0.00 0.00 0.00 1012.0
20260902225618 89 180 3.0 7.0 0.00 0.00 0.00 1012.2
20260902225519 89 225 4.0 7.0 0.00 0.00 0.00 1012.3
20260902225419 89 202 1.0 2.0 0.00 0.00 0.00 1012.3
20260902225320 90 225 3.0 4.0 0.00 0.00 0.00 1012.1
20260902225219 90 225 3.0 8.0 0.00 0.00 0.00 1012.1
20260902224819 90 157 1.0 4.0 0.00 0.00 0.00 1012.1
20260902224720 90 157 1.0 2.0 0.00 0.00 0.00 1012.2
20260902224019 91 202 4.0 8.0 0.00 0.00 0.00 1012.1
20260902223019 91 270 4.0 7.0 0.00 0.00 0.00 1012.3
20260902222619 92 202 3.0 6.0 0.00 0.00 0.00 1012.2
20260902221018 92 202 2.0 3.0 0.00 0.00 0.00 1012.6
20260902220918 92 225 3.0 6.0 0.00 0.00 0.00 1012.5
20260902220819 92 157 6.0 9.0 0.00 0.00 0.00 1012.7
20260902215819 90 180 1.0 2.0 0.00 0.00 0.00 1012.8
20260902215419 91 157 3.0 5.0 0.00 0.00 0.00 1012.9
20260902215319 91 225 4.0 6.0 0.00 0.00 0.00 1012.6
20260902215219 91 225 3.0 5.0 0.00 0.00 0.00 1012.8
20260902214218 91 225 5.0 11.0 0.00 0.00 0.00 1012.7
20260902214118 91 202 4.0 5.0 0.00 0.00 0.00 1013.0
20260902214019 91 247 4.0 6.0 0.00 0.00 0.00 1012.7
20260902213618 90 202 2.0 4.0 0.00 0.00 0.00 1012.9
20260902213218 89 45 2.0 4.0 0.00 0.00 0.00 1013.0
20260902213151 88 202 3.0 5.0 0.00 0.00 0.00 1013.1
20260902212919 88 247 3.0 5.0 0.00 0.00 0.00 1013.0
20260902212219 88 225 7.0 9.0 0.00 0.00 0.00 1013.0
20260902212119 89 225 6.0 9.0 0.00 0.00 0.00 1013.0
20260902212019 89 225 7.0 8.0 0.00 0.00 0.00 1012.9
20260902211919 89 225 3.0 5.0 0.00 0.00 0.00 1012.9
20260902211819 89 157 4.0 6.0 0.00 0.00 0.00 1013.0
20260902211118 89 225 3.0 6.0 0.00 0.00 0.00 1013.1
20260902211019 89 202 1.0 3.0 0.00 0.00 0.00 1013.0
20260902210919 88 112 2.0 3.0 0.00 0.00 0.00 1012.9
20260902210519 90 225 5.0 8.0 0.00 0.00 0.00 1012.9
20260902210419 90 202 6.0 10.0 0.00 0.00 0.00 1013.2
20260902210019 88 157 1.0 5.0 0.00 0.00 0.00 1013.3
20260902205319 89 225 5.0 7.0 0.00 0.00 0.00 1013.3
20260902204919 89 202 2.0 6.0 0.00 0.00 0.00 1013.5
20260902203619 89 225 4.0 6.0 0.00 0.00 0.00 1013.4
20260902202918 87 315 2.0 3.0 0.00 0.00 0.00 1013.5
20260902202819 87 67 3.0 4.0 0.00 0.00 0.00 1013.6
20260902202719 88 292 3.0 4.0 0.00 0.00 0.00 1013.6
20260902202619 88 292 1.0 2.0 0.00 0.00 0.00 1013.6
20260902201618 85 315 3.0 6.0 0.00 0.00 0.00 1014.1
20260902200319 85 225 3.0 5.0 0.00 0.00 0.00 1013.9
20260902195618 85 225 1.0 2.0 0.00 0.00 0.00 1014.2
20260902195519 85 135 1.0 2.0 0.00 0.00 0.00 1014.1
20260902194219 85 292 1.0 2.0 0.00 0.00 0.00 1014.2
20260902193519 85 247 3.0 5.0 0.00 0.00 0.00 1014.6
20260902193403 85 225 4.0 6.0 0.00 0.00 0.00 1014.2
20260902193219 85 225 2.0 6.0 0.00 0.00 0.00 1014.6
20260902192819 84 315 1.0 2.0 0.00 0.00 0.00 1014.8
20260902192719 84 22 2.0 2.0 0.00 0.00 0.00 1014.7
20260902192318 82 202 1.0 4.0 0.00 0.00 0.00 1014.6
20260902191618 82 202 1.0 3.0 0.00 0.00 0.00 1014.8
20260902190619 85 180 2.0 4.0 0.00 0.00 0.00 1014.5
20260902185619 84 112 1.0 3.0 0.00 0.00 0.00 1015.0
20260902184619 83 202 0.0 1.0 0.00 0.00 0.00 1015.0
20260902184219 82 112 1.0 2.0 0.00 0.00 0.00 1015.1
20260902183619 81 202 1.0 5.0 0.00 0.00 0.00 1014.7
20260902180819 80 157 1.0 3.0 0.00 0.00 0.00 1015.0
20260902180419 79 157 1.0 2.0 0.00 0.00 0.00 1015.1
20260902180319 79 315 1.0 2.0 0.00 0.00 0.00 1015.1
20260902180219 79 135 1.0 1.0 0.00 0.00 0.00 1015.0
20260902180119 79 180 1.0 2.0 0.00 0.00 0.00 1015.1
20260902173919 80 180 1.0 2.0 0.00 0.00 0.00 1015.0
20260902173319 79 135 2.0 3.0 0.00 0.00 0.00 1015.0
20260902173219 79 112 1.0 3.0 0.00 0.00 0.00 1015.0
20260902173119 79 67 1.0 2.0 0.00 0.00 0.00 1014.9
20260902172119 78 225 1.0 2.0 0.00 0.00 0.00 1015.0
20260902170219 76 112 1.0 2.0 0.00 0.00 0.00 1014.8
20260902164919 76 202 1.0 2.0 0.00 0.00 0.00 1014.9
20260902163919 75 202 0.0 1.0 0.00 0.00 0.00 1014.6
20260902163219 75 225 0.0 2.0 0.00 0.00 0.00 1014.5
20260902162519 75 225 0.0 1.0 0.00 0.00 0.00 1014.8
20260902162118 75 337 1.0 2.0 0.00 0.00 0.00 1014.7
20260902161719 75 157 0.0 1.0 0.00 0.00 0.00 1014.7
20260902161319 74 157 0.0 1.0 0.00 0.00 0.00 1014.7
20260902160919 74 315 1.0 2.0 0.00 0.00 0.00 1015.0
20260902155319 69 180 0.0 0.0 0.00 0.00 0.00 1015.0
20260902155219 68 225 0.0 1.0 0.00 0.00 0.00 1014.9
20260902155119 68 180 1.0 2.0 0.00 0.00 0.00 1014.9
20260902154719 69 157 0.0 0.0 0.00 0.00 0.00 1014.9
20260902154319 70 337 1.0 2.0 0.00 0.00 0.00 1014.7
20260902154219 70 22 1.0 2.0 0.00 0.00 0.00 1014.8
20260902153819 70 337 1.0 1.0 0.00 0.00 0.00 1014.9
20260902152219 65 90 0.0 1.0 0.00 0.00 0.00 1015.1
20260902152134 65 22 0.0 0.0 0.00 0.00 0.00 1014.9
20260902151120 67 225 2.0 3.0 0.00 0.00 0.00 1014.9
20260902151019 67 225 2.0 3.0 0.00 0.00 0.00 1014.9
20260902150019 67 202 0.0 0.0 0.00 0.00 0.00 1014.9
20260902145920 67 180 0.0 0.0 0.00 0.00 0.00 1014.7
20260902145519 65 225 0.0 2.0 0.00 0.00 0.00 1014.7
20260902144720 66 225 1.0 2.0 0.00 0.00 0.00 1014.5
20260902144619 66 225 1.0 2.0 0.00 0.00 0.00 1014.4
20260902144218 67 180 1.0 3.0 0.00 0.00 0.00 1014.4
20260902143819 69 202 0.0 0.0 0.00 0.00 0.00 1014.5
20260902143719 69 180 0.0 0.0 0.00 0.00 0.00 1014.5
20260902143619 69 202 0.0 0.0 0.00 0.00 0.00 1014.7
20260902143219 67 202 0.0 0.0 0.00 0.00 0.00 1014.1
20260902143121 67 225 0.0 0.0 0.00 0.00 0.00 1014.2
20260902142807 66 225 0.0 0.0 0.00 0.00 0.00 1014.6
20260902142212 64 22 0.0 0.0 0.00 0.00 0.00 1014.3
20260902142019 64 0 1.0 2.0 0.00 0.00 0.00 1014.4
20260902141819 63 22 0.0 1.0 0.00 0.00 0.00 1014.4
20260902141119 60 22 0.0 0.0 0.00 0.00 0.00 1014.2
20260902141019 60 22 0.0 1.0 0.00 0.00 0.00 1014.3
20260902140919 59 315 1.0 2.0 0.00 0.00 0.00 1014.2
20260902140532 58 0 0.0 0.0 0.00 0.00 0.00 1014.2
20260902140419 58 225 0.0 0.0 0.00 0.00 0.00 1014.1
20260902140019 56 202 0.0 0.0 0.00 0.00 0.00 1014.3
20260902135659 54 270 0.0 0.0 0.00 0.00 0.00 1014.0
20260902134919 52 202 0.0 0.0 0.00 0.00 0.00 1014.1
20260902133618 51 315 0.0 0.0 0.00 0.00 0.00 1014.1
20260902133519 51 315 0.0 0.0 0.00 0.00 0.00 1014.1
20260902131919 52 315 0.0 0.0 0.00 0.00 0.00 1014.1
20260902131519 52 315 0.0 0.0 0.00 0.00 0.00 1014.1
20260902131119 53 315 0.0 0.0 0.00 0.00 0.00 1014.2
20260902130719 53 0 0.0 0.0 0.00 0.00 0.00 1014.0
20260902130619 53 0 0.0 0.0 0.00 0.00 0.00 1014.1
20260902125319 54 22 0.0 0.0 0.00 0.00 0.00 1014.3
20260902125218 54 337 0.0 0.0 0.00 0.00 0.00 1014.3
20260902125119 54 337 0.0 0.0 0.00 0.00 0.00 1014.2
20260902124718 54 337 0.0 0.0 0.00 0.00 0.00 1014.2
20260902124619 54 0 0.0 0.0 0.00 0.00 0.00 1014.2
20260902124518 54 0 0.0 0.0 0.00 0.00 0.00 1014.3
20260902124419 54 0 0.0 0.0 0.00 0.00 0.00 1014.3
20260902124019 55 0 0.0 0.0 0.00 0.00 0.00 1014.2
20260902123919 55 0 0.0 0.0 0.00 0.00 0.00 1014.2
20260902123218 54 0 0.0 1.0 0.00 0.00 0.00 1014.3
20260902122519 54 0 0.0 0.0 0.00 0.00 0.00 1014.4
20260902121519 54 0 0.0 0.0 0.00 0.00 0.00 1014.4
20260902115919 53 0 0.0 0.0 0.00 0.00 0.00 1014.4
20260902115819 53 0 0.0 0.0 0.00 0.00 0.00 1014.4
20260902115119 53 0 0.0 0.0 0.00 0.00 0.00 1014.4
20260902114419 54 0 0.0 0.0 0.00 0.00 0.00 1014.5
20260902114019 54 0 0.0 0.0 0.00 0.00 0.00 1014.3
20260902113619 54 0 0.0 0.0 0.00 0.00 0.00 1014.2
20260902113519 54 0 0.0 0.0 0.00 0.00 0.00 1014.3
20260902113419 54 0 0.0 0.0 0.00 0.00 0.00 1014.3
20260902113319 54 0 0.0 0.0 0.00 0.00 0.00 1014.3
20260902113219 54 0 0.0 0.0 0.00 0.00 0.00 1014.5
20260902113119 54 0 0.0 0.0 0.00 0.00 0.00 1014.3
20260902111818 55 0 0.0 0.0 0.00 0.00 0.00 1014.5
20260902110818 56 0 0.0 0.0 0.00 0.00 0.00 1014.5
20260902110418 56 0 0.0 0.0 0.00 0.00 0.00 1014.4
20260902110019 56 0 1.0 2.0 0.00 0.00 0.00 1014.1
20260902105619 56 337 0.0 1.0 0.00 0.00 0.00 1014.3
20260902104919 56 337 0.0 1.0 0.00 0.00 0.00 1014.5
20260902103919 56 337 1.0 1.0 0.00 0.00 0.00 1014.1
20260902103819 56 337 1.0 2.0 0.00 0.00 0.00 1014.2
20260902103719 56 315 1.0 1.0 0.00 0.00 0.00 1014.2
20260902103619 56 315 0.0 0.0 0.00 0.00 0.00 1014.7
20260902103219 56 0 0.0 0.0 0.00 0.00 0.00 1014.0
20260902103119 56 0 0.0 0.0 0.00 0.00 0.00 1014.1
20260902102718 56 0 0.0 0.0 0.00 0.00 0.00 1014.2
20260902102619 56 0 0.0 0.0 0.00 0.00 0.00 1014.3
20260902101919 57 337 0.0 0.0 0.00 0.00 0.00 1014.3
20260902101519 57 337 1.0 1.0 0.00 0.00 0.00 1014.8
20260902100519 57 337 1.0 2.0 0.00 0.00 0.00 1014.9
20260902100419 57 0 0.0 1.0 0.00 0.00 0.00 1014.7
20260902100019 56 0 1.0 2.0 0.00 0.00 0.00 1014.9
20260902095319 56 22 0.0 1.0 0.00 0.00 0.00 1014.3
20260902095219 56 22 0.0 1.0 0.00 0.00 0.00 1014.3
20260902095118 56 22 0.0 0.0 0.00 0.00 0.00 1014.4
20260902095019 56 22 0.0 1.0 0.00 0.00 0.00 1014.3
20260902094619 55 0 0.0 0.0 0.00 0.00 0.00 1014.4
20260902094219 56 22 0.0 1.0 0.00 0.00 0.00 1014.4
20260902094118 56 337 0.0 0.0 0.00 0.00 0.00 1014.6
20260902093419 56 22 0.0 0.0 0.00 0.00 0.00 1014.4
20260902093318 56 22 0.0 0.0 0.00 0.00 0.00 1014.3
20260902092619 56 0 0.0 0.0 0.00 0.00 0.00 1014.3
20260902092519 56 0 0.0 0.0 0.00 0.00 0.00 1014.3
20260902092419 56 0 0.0 0.0 0.00 0.00 0.00 1014.5
20260902092318 56 0 0.0 0.0 0.00 0.00 0.00 1014.3
20260902092218 56 0 0.0 0.0 0.00 0.00 0.00 1014.4
20260902091218 56 0 0.0 0.0 0.00 0.00 0.00 1014.4
20260902090818 56 0 0.0 0.0 0.00 0.00 0.00 1014.4
20260902090718 56 0 0.0 0.0 0.00 0.00 0.00 1014.4
20260902090619 56 0 0.0 0.0 0.00 0.00 0.00 1014.3
20260902085619 57 0 0.0 0.0 0.00 0.00 0.00 1014.4
20260902085519 57 0 0.0 0.0 0.00 0.00 0.00 1014.3
20260902085119 58 337 0.0 0.0 0.00 0.00 0.00 1014.4
20260902084718 58 0 0.0 1.0 0.00 0.00 0.00 1014.5
20260902084619 58 315 0.0 1.0 0.00 0.00 0.00 1014.5
20260902084519 58 315 0.0 1.0 0.00 0.00 0.00 1014.6
20260902084118 58 0 0.0 0.0 0.00 0.00 0.00 1014.6
20260902084018 58 0 0.0 0.0 0.00 0.00 0.00 1014.6
20260902083318 58 337 1.0 1.0 0.00 0.00 0.00 1014.5
20260902081718 57 45 1.0 2.0 0.00 0.00 0.00 1014.5
20260902080418 57 22 0.0 0.0 0.00 0.00 0.00 1014.5
20260902080318 57 0 0.0 0.0 0.00 0.00 0.00 1014.5
20260902080219 57 0 0.0 0.0 0.00 0.00 0.00 1014.5
20260902080119 57 0 0.0 0.0 0.00 0.00 0.00 1014.5
20260902080019 57 0 0.0 0.0 0.00 0.00 0.00 1014.5
20260902075619 57 337 0.0 0.0 0.00 0.00 0.00 1014.5
20260902075219 57 337 0.0 0.0 0.00 0.00 0.00 1014.4
20260902075119 57 337 0.0 0.0 0.00 0.00 0.00 1014.9
20260902075019 57 337 0.0 0.0 0.00 0.00 0.00 1014.3
20260902074919 57 337 0.0 0.0 0.00 0.00 0.00 1014.4
20260902074819 57 337 0.0 0.0 0.00 0.00 0.00 1014.4
20260902074718 57 337 0.0 0.0 0.00 0.00 0.00 1014.4
20260902073719 58 337 0.0 0.0 0.00 0.00 0.00 1014.3
20260902073619 58 337 0.0 0.0 0.00 0.00 0.00 1014.3
20260902073519 58 337 0.0 0.0 0.00 0.00 0.00 1014.4
20260902072818 58 337 0.0 0.0 0.00 0.00 0.00 1014.2
20260902072119 58 337 0.0 0.0 0.00 0.00 0.00 1014.3
20260902072019 58 337 0.0 0.0 0.00 0.00 0.00 1014.1
20260902071918 58 337 0.0 0.0 0.00 0.00 0.00 1014.3
20260902071819 58 337 0.0 0.0 0.00 0.00 0.00 1014.1
20260902071119 58 315 0.0 0.0 0.00 0.00 0.00 1014.1
20260902071019 58 247 0.0 0.0 0.00 0.00 0.00 1014.0
20260902070919 58 247 0.0 0.0 0.00 0.00 0.00 1014.1
20260902070219 58 247 0.0 0.0 0.00 0.00 0.00 1014.0
20260902065519 59 292 0.0 0.0 0.00 0.00 0.00 1014.1
20260902064818 59 202 0.0 0.0 0.00 0.00 0.00 1013.9
20260902063219 59 202 0.0 0.0 0.00 0.00 0.00 1014.0
20260902062819 60 270 0.0 0.0 0.00 0.00 0.00 1013.9
20260902061819 60 270 0.0 0.0 0.00 0.00 0.00 1013.8
20260902061719 61 270 0.0 0.0 0.00 0.00 0.00 1013.9
20260902060719 62 270 0.0 0.0 0.00 0.00 0.00 1013.9
20260902060319 62 225 0.0 0.0 0.00 0.00 0.00 1014.1
20260902055619 63 157 0.0 0.0 0.00 0.00 0.00 1013.7
20260902055518 63 157 0.0 0.0 0.00 0.00 0.00 1013.6
20260902055419 63 157 0.0 0.0 0.00 0.00 0.00 1013.6
20260902055018 64 157 0.0 0.0 0.00 0.00 0.00 1013.7
20260902054618 65 180 0.0 0.0 0.00 0.00 0.00 1013.6
20260902054519 65 180 0.0 0.0 0.00 0.00 0.00 1013.7
20260902054419 65 180 0.0 1.0 0.00 0.00 0.00 1013.7
20260902054019 65 202 0.0 0.0 0.00 0.00 0.00 1013.7
20260902053919 65 202 0.0 0.0 0.00 0.00 0.00 1013.7
20260902053219 66 157 0.0 0.0 0.00 0.00 0.00 1013.6
20260902052218 66 202 1.0 2.0 0.00 0.00 0.00 1013.7
20260902052119 66 202 1.0 2.0 0.00 0.00 0.00 1014.0
20260902052019 66 225 2.0 3.0 0.00 0.00 0.00 1013.7
20260902051619 66 225 0.0 2.0 0.00 0.00 0.00 1013.8
20260902051519 66 247 1.0 2.0 0.00 0.00 0.00 1013.6
20260902051119 67 157 0.0 1.0 0.00 0.00 0.00 1013.9
20260902050418 67 225 1.0 2.0 0.00 0.00 0.00 1013.8
20260902050319 67 180 1.0 2.0 0.00 0.00 0.00 1013.7
20260902045619 67 247 2.0 3.0 0.00 0.00 0.00 1013.7
20260902045519 67 225 2.0 4.0 0.00 0.00 0.00 1013.7